GW3736 Weather Reports


time (UTC)temp
F
wind
direction
speed
knots
gust
knots
rain 1hr
in
rain 24hr
in
rain mn
in
humidity
%
barometer
mb
20260510214531 60 272 3.5 7.0 0.00 0.00 0.00 33 1014.0
20260510213526 60 280 5.2 12.2 0.00 0.00 0.00 32 1013.8
20260510212543 60 291 4.3 9.6 0.00 0.00 0.00 31 1013.9
20260510211519 60 298 5.2 11.3 0.00 0.00 0.00 31 1013.8
20260510210535 61 301 6.1 13.0 0.00 0.00 0.00 30 1013.7
20260510205551 60 266 5.2 12.2 0.00 0.00 0.00 33 1013.7
20260510204527 60 322 2.6 6.1 0.00 0.00 0.00 33 1013.7
20260510203523 60 316 5.2 12.2 0.00 0.00 0.00 34 1013.9
20260510202519 59 290 3.5 7.8 0.00 0.00 0.00 33 1013.8
20260510201535 59 297 4.3 13.0 0.00 0.00 0.00 36 1014.0
20260510200531 59 309 1.7 6.1 0.00 0.00 0.00 38 1014.2
20260510195527 59 300 2.6 6.1 0.00 0.00 0.00 39 1014.1
20260510194543 59 117 4.3 8.7 0.00 0.00 0.00 44 1014.3
20260510193519 58 229 1.7 7.0 0.00 0.00 0.00 44 1014.2
20260510192535 59 93 2.6 7.0 0.00 0.02 0.00 41 1014.3
20260510191531 60 134 2.6 6.1 0.00 0.05 0.00 43 1014.3
20260510190527 60 171 1.7 5.2 0.00 0.05 0.00 42 1014.3
20260510185523 60 112 3.5 9.6 0.00 0.06 0.00 43 1014.1
20260510184519 60 148 3.5 9.6 0.00 0.06 0.00 45 1014.2
20260510183535 60 112 3.5 7.0 0.00 0.06 0.00 41 1014.1
20260510182531 60 144 2.6 8.7 0.00 0.06 0.00 45 1014.1
20260510181527 59 123 5.2 9.6 0.00 0.06 0.00 47 1013.9
20260510180524 59 110 1.7 5.2 0.00 0.06 0.00 47 1013.9
20260510175519 59 38 0.9 3.5 0.00 0.06 0.00 42 1013.9
20260510174535 60 110 2.6 7.0 0.00 0.06 0.00 43 1013.9
20260510173652 59 150 2.6 5.2 0.00 0.06 0.00 44 1013.9
20260510172547 60 141 2.6 7.0 0.00 0.06 0.00 42 1014.2
20260510171523 60 232 1.7 5.2 0.00 0.06 0.00 36 1014.1
20260510170519 59 321 0.9 5.2 0.00 0.06 0.00 37 1014.1
20260510165555 59 301 3.5 7.0 0.00 0.06 0.00 40 1014.1
20260510164531 59 154 1.7 3.5 0.00 0.06 0.00 41 1014.1
20260510163547 59 290 3.5 8.7 0.00 0.06 0.00 36 1014.0
20260510162523 58 279 3.5 7.8 0.00 0.06 0.00 37 1014.0
20260510161519 58 312 2.6 6.1 0.00 0.06 0.00 40 1013.9
20260510160515 58 329 1.7 6.1 0.00 0.06 0.00 41 1013.7
20260510155531 57 294 4.3 8.7 0.00 0.06 0.00 40 1013.7
20260510154527 57 311 2.6 7.8 0.00 0.06 0.00 42 1013.7
20260510153524 57 290 0.9 2.6 0.00 0.06 0.00 43 1013.6
20260510152520 56 288 2.6 6.1 0.00 0.06 0.00 45 1013.5
20260510151515 56 238 0.9 2.6 0.00 0.06 0.00 47 1013.5
20260510150552 55 295 1.7 5.2 0.00 0.06 0.00 47 1013.3
20260510145528 55 305 1.7 3.5 0.00 0.06 0.00 47 1013.4
20260510144524 54 283 3.5 7.8 0.00 0.06 0.00 47 1013.3
20260510143520 53 293 3.5 7.8 0.00 0.06 0.00 47 1013.2
20260510142516 53 280 3.5 7.0 0.00 0.06 0.00 47 1013.1
20260510141532 52 324 1.7 6.1 0.00 0.06 0.00 50 1013.2
20260510140528 52 276 2.6 6.1 0.00 0.06 0.00 49 1013.2
20260510135523 52 10 0.9 3.5 0.00 0.06 0.00 52 1013.0
20260510134519 51 310 2.6 5.2 0.00 0.06 0.00 53 1013.0
20260510133535 51 322 0.9 2.6 0.00 0.06 0.00 53 1013.0
20260510132530 50 331 1.7 3.5 0.00 0.06 0.00 55 1012.7
20260510131527 50 328 2.6 6.1 0.00 0.06 0.00 56 1012.6
20260510130523 49 350 0.9 2.6 0.00 0.06 0.00 58 1012.5
20260510125519 49 334 1.7 5.2 0.00 0.06 0.00 61 1012.4
20260510124534 48 352 0.9 2.6 0.00 0.06 0.00 62 1012.4
20260510123531 48 325 2.6 6.1 0.00 0.06 0.00 64 1012.2
20260510122527 47 327 0.9 3.5 0.00 0.06 0.00 65 1012.2
20260510121543 47 325 2.6 6.1 0.00 0.06 0.00 67 1012.1
20260510120518 46 321 0.9 3.5 0.00 0.06 0.00 67 1011.9
20260510115535 45 324 0.9 2.6 0.00 0.06 0.00 69 1011.7
20260510114531 45 331 0.9 3.5 0.00 0.06 0.00 71 1011.6
20260510113607 44 293 0.9 2.6 0.00 0.06 0.00 73 1011.5
20260510112523 44 320 1.7 2.6 0.00 0.06 0.00 73 1011.3
20260510111519 43 298 0.9 2.6 0.00 0.06 0.00 74 1011.2
20260510110535 42 309 0.0 0.9 0.00 0.06 0.00 74 1011.1
20260510105531 42 318 0.9 1.7 0.00 0.06 0.00 75 1011.0
20260510104527 42 312 0.0 0.9 0.00 0.06 0.00 75 1010.8
20260510103543 42 311 0.0 0.9 0.00 0.06 0.00 73 1010.7
20260510102539 42 0.0 0.0 0.00 0.06 0.00 72 1010.5
20260510101535 42 0.0 0.0 0.00 0.06 0.00 72 1010.5
20260510100531 42 314 0.0 0.9 0.00 0.06 0.00 72 1010.3
20260510095527 42 0.0 0.0 0.00 0.06 0.00 72 1010.3
20260510094523 42 0.0 0.0 0.00 0.06 0.00 72 1010.2
20260510093519 43 320 0.9 1.7 0.00 0.06 0.00 72 1010.1
20260510092515 43 326 0.9 0.9 0.00 0.06 0.00 71 1009.9
20260510091531 43 326 0.9 1.7 0.00 0.06 0.00 71 1009.7
20260510090527 44 326 0.9 1.7 0.00 0.06 0.00 71 1009.5
20260510085523 44 340 0.9 1.7 0.00 0.06 0.00 70 1009.3
20260510084519 44 0.0 0.0 0.00 0.06 0.00 70 1009.1
20260510083535 44 30 0.9 2.6 0.00 0.06 0.00 70 1008.8
20260510082531 44 11 0.9 1.7 0.00 0.06 0.00 70 1008.8
20260510081527 45 9 0.9 2.6 0.00 0.06 0.00 69 1008.5
20260510080524 45 20 0.9 2.6 0.00 0.06 0.00 69 1008.3
20260510075520 45 24 0.9 1.7 0.00 0.06 0.00 68 1007.9
20260510074535 46 18 0.9 2.6 0.00 0.06 0.00 68 1007.9
20260510073531 46 9 1.7 6.1 0.00 0.06 0.00 68 1007.8
20260510072527 46 29 0.9 5.2 0.00 0.06 0.00 67 1007.7
20260510071523 46 53 2.6 5.2 0.00 0.06 0.00 67 1007.5
20260510070519 47 53 1.7 6.1 0.00 0.06 0.00 67 1007.5
20260510065555 47 34 1.7 5.2 0.00 0.06 0.00 67 1007.4
20260510064531 48 35 1.7 6.1 0.00 0.06 0.00 67 1007.5
20260510063527 48 50 0.9 3.5 0.00 0.06 0.00 66 1007.3
20260510062523 49 59 1.7 7.0 0.00 0.06 0.00 65 1007.3
20260510061519 50 26 1.7 6.1 0.00 0.06 0.00 63 1007.0
20260510060535 51 26 1.7 7.0 0.00 0.06 0.00 61 1006.8
20260510055531 51 4 0.0 2.6 0.00 0.06 0.00 58 1006.7
20260510054527 52 331 0.0 0.9 0.00 0.06 0.00 58 1006.3
20260510053523 52 342 0.0 0.9 0.00 0.06 0.00 58 1006.3
20260510052519 52 3 0.0 2.6 0.00 0.06 0.00 57 1006.0
20260510051535 53 305 0.0 1.7 0.00 0.06 0.00 56 1006.0
20260510050550 53 351 0.0 1.7 0.00 0.06 0.00 56 1005.7
20260510045527 53 1 0.9 2.6 0.00 0.06 0.00 56 1005.6
20260510044603 53 335 0.9 2.6 0.00 0.06 0.00 55 1005.4
20260510043518 54 349 0.9 2.6 0.00 0.06 0.00 55 1005.4
20260510042534 54 331 0.9 3.5 0.00 0.06 0.00 55 1005.2
20260510041530 54 316 0.9 2.6 0.00 0.06 0.00 55 1005.0
20260510040546 55 298 0.9 2.6 0.00 0.06 0.00 54 1004.9
20260510035522 55 342 1.7 5.2 0.00 0.06 0.06 55 1005.0
20260510034518 55 13 1.7 6.1 0.00 0.06 0.06 55 1004.7
20260510033534 56 356 1.7 5.2 0.00 0.06 0.06 55 1004.5
20260510032530 56 334 2.6 7.8 0.00 0.06 0.06 54 1004.3
20260510031526 57 337 1.7 6.1 0.00 0.06 0.06 55 1004.1
20260510030521 57 337 2.6 6.1 0.00 0.06 0.06 56 1004.0
20260510025518 58 352 2.6 7.0 0.00 0.06 0.06 56 1003.9
20260510024554 59 342 1.7 7.8 0.00 0.06 0.06 54 1003.6
20260510023529 59 352 2.6 6.1 0.00 0.06 0.06 51 1003.3
20260510022525 60 353 1.7 7.0 0.00 0.06 0.06 50 1002.8
20260510021521 60 330 2.6 8.7 0.00 0.06 0.06 51 1002.4
20260510020517 60 329 0.0 1.7 0.00 0.06 0.06 51 1002.0
20260510015533 61 340 0.0 0.9 0.00 0.06 0.06 50 1001.8
20260510014609 61 0.0 0.0 0.00 0.06 0.06 49 1001.5
20260510013525 61 340 0.0 1.7 0.00 0.06 0.06 49 1001.2
20260510012521 62 333 0.0 1.7 0.00 0.06 0.06 48 1001.0
20260510011516 63 327 0.9 3.5 0.00 0.06 0.06 46 1000.9
20260510010532 63 327 1.7 3.5 0.00 0.06 0.06 46 1000.7
20260510005528 63 337 1.7 5.2 0.00 0.06 0.06 45 1000.6
20260510004524 64 329 1.7 3.5 0.00 0.06 0.06 44 1000.2
20260510003520 65 325 2.6 8.7 0.00 0.06 0.06 43 1000.3
20260510002536 65 318 4.3 9.6 0.00 0.06 0.06 41 1000.1
20260510001532 66 309 4.3 8.7 0.00 0.06 0.06 40 1000.0
20260510000527 66 297 6.1 14.8 0.00 0.06 0.06 39 999.9
20260509235523 67 291 7.0 14.8 0.00 0.06 0.06 38 999.9
20260509234519 67 300 6.1 13.9 0.00 0.06 0.06 37 999.8
20260509233536 67 296 7.8 15.6 0.00 0.06 0.06 36 999.7
20260509232531 68 299 9.6 21.7 0.00 0.06 0.06 36 999.5
20260509231527 68 294 7.0 14.8 0.00 0.06 0.06 36 999.4
20260509230523 69 289 10.4 21.7 0.00 0.06 0.06 35 999.2
20260509225519 69 281 7.8 18.2 0.00 0.06 0.06 36 999.0
20260509224515 69 296 10.4 21.7 0.00 0.06 0.06 38 998.7
20260509223531 68 279 7.8 13.9 0.00 0.06 0.06 37 998.6
20260509222527 69 278 7.0 18.2 0.00 0.06 0.06 38 998.4
20260509221523 69 277 11.3 19.1 0.00 0.06 0.06 37 998.4
20260509220519 69 274 11.3 20.0 0.00 0.06 0.06 37 998.1
20260509215536 69 299 10.4 20.9 0.00 0.06 0.06 36 997.9